Temp
6 6 6 6 6 5 5 5 5 5 5 6 6 6 7 7 6 7 7 7 6 7 6 6 7 6 6 6 6 6 6 5 5 5 5 4 4 4 4 3 3 2 2 2 1 1 1
6 6 6 6 6 5 5 5 5 5 5 5 6 6 7 7 7 7 7 7 7 7 6 6 6 6 6 6 6 6 5 5 5 4 4 4 4 4 4 3 2 2 1 1 1 1 1
6 6 6 6 5 5 5 5 6 6 6 6 6 6 6 7 7 8 7 7 7 7 7 6 6 6 6 6 6 5 5 5 5 4 4 4 4 3 3 3 2 2 1 1 1 1 0
6 6 6 6 6 5 5 6 6 6 6 6 6 6 7 7 8 8 8 8 8 7 7 7 6 6 6 6 5 5 5 5 5 4 4 4 3 3 3 2 2 1 1 0 1 0 0
6 6 6 5 5 6 6 6 7 7 7 7 7 7 7 7 7 8 8 8 8 7 7 6 6 6 6 5 5 5 5 5 4 4 4 3 3 3 3 2 1 1 2 0 -0 1 0
5 5 5 5 5 6 6 6 7 7 7 7 7 7 7 7 7 7 8 8 7 7 7 6 6 6 5 5 5 5 5 4 4 4 4 3 3 3 2 2 3 1 1 0 1 0 -0
5 5 5 5 5 6 6 7 7 8 8 8 8 7 7 8 8 8 8 7 7 7 7 6 6 5 5 5 5 5 4 4 4 4 4 3 3 2 2 2 1 1 1 0 1 0 -1
5 5 5 5 5 6 6 7 7 8 8 8 8 8 8 8 8 8 8 7 7 7 7 6 6 5 5 5 5 4 4 4 4 4 3 3 2 2 2 1 1 1 1 0 1 0 -0
5 5 5 5 6 6 6 7 7 8 8 8 8 8 8 8 8 8 8 7 7 6 6 6 5 5 5 5 4 4 4 4 4 4 3 3 2 2 1 1 1 1 1 0 -0 -1 -0
5 5 5 6 6 6 6 7 7 8 8 8 8 8 8 8 8 8 8 8 7 6 6 5 5 5 5 5 4 4 4 4 4 3 3 3 2 2 1 1 1 1 1 -0 -1 -2 0
5 5 5 6 6 6 7 7 7 7 8 8 8 8 8 8 8 8 8 7 7 6 5 5 5 4 4 4 4 4 4 4 4 3 3 2 2 2 1 1 1 0 0 0 -1 -2 -2
5 5 6 6 6 6 7 7 7 7 7 7 7 7 8 8 8 8 8 7 7 6 5 5 4 4 4 4 3 3 3 3 3 3 3 2 2 2 1 1 1 0 1 1 0 -1 -0
5 6 6 6 6 6 6 7 7 7 7 7 7 7 7 8 8 8 7 7 6 6 5 4 4 4 4 3 3 3 3 3 3 3 2 2 2 2 1 1 1 0 1 1 1 1 2
5 5 6 6 6 6 6 6 6 6 6 6 7 7 7 7 8 8 7 7 6 5 4 4 4 3 3 3 3 3 2 2 2 1 1 1 1 1 1 1 -0 -0 -1 -0 0 1 2
5 5 5 6 6 6 6 6 6 6 6 6 6 7 7 7 8 8 7 7 5 4 4 3 3 3 3 2 2 2 1 1 1 0 0 -0 0 1 1 0 -0 -1 -1 -1 -2 -3 -3
5 5 5 5 6 6 6 6 6 6 6 6 6 7 7 7 7 7 6 6 5 4 4 3 3 3 2 2 2 2 1 1 0 -0 -1 -1 -1 1 1 -0 -1 -1 -1 -2 -2 -0 -0
5 5 5 5 5 6 5 5 6 6 6 6 6 6 6 6 6 6 6 5 5 4 4 3 3 2 2 2 2 1 1 0 -0 -1 -1 -2 -1 0 0 -0 -1 -2 -2 -2 -2 -2 -0
5 5 5 5 5 5 5 5 5 5 5 5 6 6 6 6 6 5 5 5 4 4 3 3 3 2 2 1 1 1 0 -0 -1 -1 -2 -2 -3 -3 -1 -0 -0 -1 -1 -2 -2 -2 -3
5 5 5 5 5 5 5 5 5 5 5 5 5 6 6 6 5 5 4 4 4 4 3 3 2 2 1 1 1 1 1 0 -1 -2 -2 -3 -3 -3 -0 -0 -1 -2 -2 -3 -3 -3 -3
5 5 5 5 5 4 4 4 4 4 4 5 5 5 5 5 4 4 4 3 3 3 3 2 2 2 1 1 0 0 0 -0 -1 -1 -2 -3 -3 -3 -2 -2 -3 -3 -3 -4 -4 -4 -3
5 4 5 4 4 4 4 4 4 4 4 4 5 5 5 4 4 4 4 3 3 3 3 2 2 1 1 0 -0 -0 -0 -1 -0 -1 -2 -3 -3 -3 -4 -4 -3 -0 1 -1 -3 -0 -4
4 4 4 4 4 4 4 3 3 3 4 4 4 4 4 4 4 4 4 3 3 2 2 2 2 1 0 -0 -1 -1 -1 -1 -1 -1 -2 -3 -3 -4 -3 -2 -2 -0 -1 0 1 0 -2
4 4 4 3 3 4 3 3 3 3 3 3 3 3 3 3 3 3 3 2 2 2 2 2 1 1 0 -0 -1 -1 -1 -1 -1 -2 -3 -3 -3 -4 -4 -4 -4 -2 2 1 -1 0 -0
3 3 3 3 3 3 3 2 2 2 2 2 2 3 2 2 2 2 2 2 2 2 2 1 0 -0 -1 -1 -1 -1 -1 -1 -1 -1 -2 -3 -3 -4 -4 -4 -3 1 0 0 -0 -1 -1
3 3 3 3 2 2 2 2 2 2 2 2 2 2 2 2 2 2 1 1 1 1 1 1 0 -1 -2 -2 -3 -2 -2 -2 -1 -1 -1 -2 -3 -4 -4 -4 -1 -0 0 -1 -1 -1 -2
2 2 2 2 2 2 1 1 1 1 1 1 1 2 1 1 2 1 1 1 1 1 1 0 -1 -2 -2 -3 -2 -3 -2 -2 -2 -2 -2 -2 -3 -4 -4 -5 -2 -0 -0 -1 -2 -2 -2
1 1 1 1 1 1 1 1 1 1 1 1 1 1 1 1 1 1 0 0 0 -0 -1 -1 -2 -2 -3 -2 -3 -3 -3 -3 -3 -2 -2 -3 -4 -4 -4 -5 -3 -2 -2 -2 -4 -2 -3
0 0 1 -1 1 0 0 -0 -0 1 0 0 -0 0 -0 0 1 1 -0 -0 -1 -1 -2 -3 -4 -4 -3 -3 -3 -3 -3 -3 -3 -3 -2 -3 -3 -4 -5 -6 -5 -2 -3 -4 -4 -4 -4
-1 -0 -0 0 -1 -0 -1 -1 -0 -1 -1 -0 -1 -1 -1 -1 -1 -1 -0 0 -2 -2 -3 -4 -4 -5 -4 -3 -4 -4 -4 -4 -3 -4 -4 -4 -4 -4 -4 -3 -3 -3 -4 -5 -5 -5 -5
Height
3204 3204 3204 3204 3203 3203 3202 3200 3198 3196 3193 3190 3187 3184 3182 3179 3176 3174 3171 3169 3167 3166 3165 3166 3166 3165 3165 3164 3163 3161 3160 3157 3155 3153 3151 3149 3147 3144 3142 3141 3141 3140 3140 3139 3139 3139 3138
3205 3206 3206 3205 3204 3203 3202 3201 3199 3196 3193 3190 3187 3185 3182 3179 3177 3174 3171 3169 3166 3165 3166 3166 3166 3166 3166 3166 3163 3162 3160 3157 3155 3153 3151 3149 3147 3144 3142 3141 3141 3140 3140 3139 3138 3138 3137
3206 3206 3206 3206 3205 3204 3203 3201 3199 3197 3194 3191 3189 3186 3183 3180 3177 3174 3171 3168 3166 3166 3166 3166 3166 3167 3167 3167 3164 3162 3160 3157 3155 3153 3151 3149 3147 3145 3143 3142 3141 3140 3140 3139 3138 3137 3136
3208 3208 3208 3207 3206 3205 3203 3202 3200 3198 3195 3193 3191 3188 3185 3181 3178 3175 3172 3169 3168 3167 3167 3167 3168 3168 3168 3167 3165 3162 3160 3158 3155 3153 3151 3148 3146 3145 3143 3141 3140 3140 3140 3140 3137 3136 3134
3210 3210 3209 3208 3207 3206 3204 3203 3201 3199 3197 3195 3193 3190 3187 3183 3180 3177 3174 3172 3170 3170 3170 3170 3170 3170 3169 3167 3165 3162 3160 3158 3155 3152 3150 3148 3147 3145 3143 3141 3140 3139 3140 3138 3136 3133 3132
3211 3211 3210 3209 3208 3207 3205 3203 3201 3199 3198 3196 3194 3191 3189 3185 3182 3178 3176 3174 3173 3173 3172 3172 3172 3173 3170 3168 3164 3162 3160 3157 3155 3152 3151 3149 3147 3145 3143 3142 3142 3140 3139 3136 3134 3131 3129
3211 3211 3211 3210 3208 3206 3205 3203 3201 3199 3198 3196 3194 3192 3189 3187 3184 3181 3178 3177 3178 3177 3174 3174 3174 3171 3169 3167 3165 3162 3160 3158 3155 3153 3151 3148 3148 3146 3144 3142 3141 3139 3136 3134 3132 3130 3127
3211 3211 3210 3209 3208 3206 3204 3203 3201 3199 3197 3196 3194 3193 3190 3188 3185 3182 3180 3178 3177 3178 3176 3175 3174 3172 3169 3167 3166 3163 3161 3158 3155 3152 3150 3150 3148 3146 3144 3142 3140 3138 3135 3133 3130 3129 3126
3210 3210 3209 3208 3207 3205 3204 3202 3201 3199 3198 3196 3195 3193 3191 3189 3186 3184 3180 3178 3176 3176 3176 3175 3174 3172 3170 3169 3166 3163 3161 3157 3154 3152 3150 3149 3149 3146 3144 3142 3140 3138 3135 3133 3132 3126 3122
3209 3208 3208 3206 3205 3204 3203 3201 3199 3198 3197 3195 3194 3192 3191 3189 3189 3184 3181 3178 3175 3174 3175 3177 3174 3172 3170 3168 3167 3163 3160 3159 3155 3154 3152 3151 3149 3147 3145 3143 3141 3137 3135 3132 3128 3125 3124
3206 3206 3206 3205 3203 3202 3201 3199 3198 3196 3195 3194 3193 3191 3190 3187 3185 3183 3181 3177 3174 3175 3177 3177 3174 3172 3169 3169 3167 3164 3161 3158 3155 3153 3153 3152 3148 3146 3145 3143 3141 3140 3133 3128 3125 3122 3122
3204 3203 3203 3202 3201 3200 3199 3197 3196 3195 3194 3193 3192 3191 3188 3187 3184 3182 3178 3175 3174 3176 3175 3175 3173 3171 3170 3167 3165 3163 3160 3158 3155 3153 3151 3149 3147 3146 3144 3142 3140 3136 3131 3125 3122 3121 3120
3201 3201 3200 3199 3198 3197 3196 3195 3194 3193 3192 3192 3191 3189 3187 3185 3183 3180 3177 3175 3176 3174 3177 3175 3172 3170 3168 3166 3164 3162 3160 3157 3155 3153 3150 3148 3147 3146 3144 3141 3138 3135 3131 3127 3123 3120 3116
3198 3198 3197 3196 3195 3195 3194 3193 3191 3190 3190 3190 3189 3188 3186 3184 3181 3178 3176 3175 3174 3175 3174 3173 3171 3169 3168 3166 3163 3161 3158 3156 3154 3153 3149 3147 3146 3145 3142 3141 3139 3136 3135 3135 3132 3125 3119
3195 3194 3194 3193 3193 3192 3191 3190 3189 3188 3188 3187 3187 3186 3184 3182 3179 3177 3176 3175 3175 3175 3174 3172 3170 3168 3167 3165 3163 3160 3157 3156 3155 3153 3154 3149 3145 3143 3141 3139 3138 3135 3135 3134 3131 3128 3126
3191 3190 3190 3190 3189 3189 3189 3188 3187 3187 3186 3186 3185 3184 3182 3180 3178 3176 3176 3175 3174 3173 3172 3171 3170 3169 3167 3164 3162 3159 3157 3156 3155 3154 3152 3150 3144 3140 3140 3138 3135 3134 3134 3134 3132 3126 3118
3186 3186 3186 3186 3186 3186 3186 3185 3184 3184 3184 3184 3183 3182 3180 3178 3177 3176 3175 3174 3172 3172 3171 3171 3169 3167 3166 3163 3160 3158 3158 3157 3154 3153 3151 3148 3147 3143 3138 3136 3133 3132 3130 3130 3131 3128 3123
3180 3181 3182 3182 3183 3182 3183 3182 3181 3181 3181 3181 3181 3180 3178 3177 3177 3174 3173 3172 3172 3171 3170 3169 3168 3166 3164 3163 3160 3159 3158 3156 3154 3152 3149 3148 3145 3140 3136 3132 3130 3130 3128 3129 3129 3127 3125
3175 3176 3177 3177 3178 3179 3179 3178 3178 3178 3179 3179 3178 3177 3176 3175 3174 3172 3171 3171 3170 3169 3168 3167 3166 3164 3163 3162 3161 3158 3156 3155 3152 3150 3148 3146 3142 3139 3133 3134 3130 3128 3127 3127 3126 3124 3121
3170 3171 3171 3172 3173 3174 3174 3175 3175 3175 3175 3176 3176 3175 3174 3173 3172 3171 3169 3169 3168 3168 3166 3164 3163 3161 3160 3159 3158 3156 3153 3151 3149 3146 3144 3141 3139 3140 3138 3134 3132 3123 3122 3121 3120 3116 3110
3164 3165 3166 3166 3168 3169 3170 3171 3171 3172 3172 3173 3172 3171 3171 3170 3169 3168 3167 3167 3165 3165 3164 3161 3159 3158 3157 3154 3153 3150 3149 3147 3145 3142 3139 3138 3133 3130 3126 3124 3121 3114 3109 3109 3108 3102 3104
3157 3158 3160 3161 3162 3163 3164 3165 3166 3168 3168 3169 3169 3169 3167 3167 3166 3165 3164 3163 3162 3160 3160 3157 3156 3154 3153 3151 3150 3146 3144 3142 3139 3136 3134 3132 3127 3124 3116 3115 3114 3107 3102 3100 3098 3094 3088
3149 3151 3153 3154 3155 3157 3158 3159 3160 3161 3162 3162 3163 3163 3164 3164 3163 3162 3160 3159 3157 3156 3156 3154 3151 3149 3147 3146 3143 3142 3140 3137 3134 3131 3129 3126 3123 3121 3113 3110 3108 3101 3097 3095 3091 3089 3085
3141 3144 3146 3148 3148 3150 3153 3154 3155 3156 3157 3157 3158 3158 3159 3158 3159 3158 3156 3156 3154 3152 3151 3149 3146 3144 3143 3140 3137 3135 3134 3131 3128 3124 3123 3120 3119 3119 3110 3106 3102 3094 3089 3085 3082 3080 3076
3132 3136 3138 3140 3142 3142 3145 3147 3149 3150 3152 3152 3152 3153 3152 3150 3152 3153 3151 3149 3148 3146 3144 3142 3141 3138 3136 3134 3130 3127 3125 3123 3120 3117 3115 3115 3113 3113 3109 3101 3089 3084 3081 3080 3074 3069 3068
3124 3128 3130 3132 3135 3137 3139 3140 3142 3143 3145 3146 3145 3145 3144 3144 3143 3145 3144 3144 3141 3139 3137 3135 3133 3133 3130 3129 3127 3124 3121 3118 3115 3112 3110 3109 3106 3107 3103 3098 3086 3076 3074 3071 3067 3063 3061
3115 3118 3121 3124 3126 3128 3131 3133 3135 3136 3137 3137 3138 3137 3136 3133 3134 3134 3134 3135 3134 3133 3130 3128 3126 3126 3124 3123 3121 3119 3115 3113 3109 3106 3104 3102 3098 3097 3094 3091 3078 3074 3071 3067 3066 3062 3054
3106 3108 3111 3114 3117 3119 3121 3123 3125 3126 3128 3127 3129 3128 3129 3124 3123 3124 3123 3126 3123 3124 3122 3120 3122 3119 3116 3113 3113 3112 3107 3106 3101 3097 3098 3096 3094 3091 3087 3085 3077 3072 3067 3067 3061 3052 3047
3094 3098 3101 3105 3107 3109 3112 3113 3114 3116 3118 3117 3120 3120 3119 3117 3116 3114 3115 3117 3114 3113 3113 3110 3113 3114 3112 3109 3107 3105 3103 3098 3094 3089 3091 3089 3088 3083 3082 3071 3068 3063 3058 3055 3049 3045 3039
Wind_Speed
9 10 10 10 10 10 11 12 14 16 17 16 15 15 14 14 12 13 13 12 10 4 4 3 4 4 4 5 5 7 11 13 12 13 12 10 10 8 6 3 4 1 2 2 3 3 3
9 9 9 9 9 10 11 13 15 16 17 15 15 16 16 15 14 13 13 13 10 3 2 3 3 4 3 3 5 6 12 10 12 12 9 9 10 10 6 3 3 3 4 4 6 6 6
9 9 8 8 9 10 11 13 15 17 17 15 15 18 18 17 17 15 15 13 8 4 4 3 4 5 5 5 5 8 12 11 11 11 9 9 9 11 8 4 5 3 4 6 9 8 9
8 7 7 7 8 10 12 13 15 17 17 16 17 20 21 19 18 17 16 12 10 9 8 7 6 5 5 5 8 10 10 11 12 11 8 8 9 10 9 6 5 3 4 5 9 10 12
6 6 6 6 7 9 11 12 13 14 15 14 16 19 22 23 20 19 16 11 10 10 9 8 6 4 5 7 12 11 11 11 13 11 8 7 7 9 10 8 4 5 5 9 11 11 13
5 5 5 6 8 10 11 12 12 11 12 13 15 17 19 23 24 21 17 11 10 9 9 7 6 4 8 10 12 8 12 13 13 11 9 7 5 9 9 6 4 7 8 9 11 13 13
3 4 4 6 8 11 11 11 12 11 10 11 13 16 19 21 23 22 19 9 7 7 8 7 7 9 10 9 8 10 14 14 12 10 8 6 3 10 9 7 9 11 14 14 12 13 17
3 4 5 7 9 12 13 13 12 11 10 11 12 13 15 18 20 22 19 11 4 2 7 8 7 10 10 7 10 13 14 14 12 8 8 4 6 9 8 10 12 14 17 11 10 13 22
4 6 7 10 11 12 15 15 13 12 11 10 11 13 13 15 18 21 17 14 6 2 1 6 10 9 12 9 11 15 16 14 9 10 8 4 10 6 11 11 13 15 11 13 16 24 23
7 8 9 12 13 13 14 15 14 13 12 10 11 13 13 15 16 18 16 14 9 3 2 4 10 10 11 12 9 15 17 14 11 9 10 6 10 6 14 10 18 12 16 19 23 17 10
9 11 11 12 14 13 14 14 14 13 11 11 11 11 13 16 17 19 19 15 8 1 1 6 7 9 10 11 9 14 14 12 9 7 15 9 8 5 13 11 18 13 19 22 22 13 11
10 12 12 13 13 11 13 13 14 13 11 10 9 11 14 16 19 20 18 14 4 1 1 4 6 9 8 10 10 12 13 11 8 7 16 10 6 4 12 12 15 20 22 17 11 7 3
12 12 12 12 13 13 13 12 11 11 10 9 9 12 14 16 19 19 16 12 1 2 7 4 8 10 7 9 10 12 13 10 11 8 17 10 5 6 8 15 13 16 17 5 2 2 3
14 14 13 13 13 14 13 12 10 10 10 10 11 13 14 17 19 18 14 7 2 3 4 7 10 9 6 11 10 12 11 7 11 12 12 11 4 9 10 13 13 11 11 5 5 5 11
17 15 15 14 14 13 13 11 10 9 10 11 11 13 15 16 17 16 10 4 3 5 6 8 9 6 7 11 10 12 10 5 10 11 13 9 5 11 7 13 13 9 5 8 5 8 5
19 17 16 16 14 13 13 11 10 10 10 11 11 12 13 14 15 10 8 5 5 6 7 7 6 5 9 11 9 11 6 6 8 11 17 11 11 5 7 17 9 7 10 4 4 5 6
21 20 18 17 16 14 13 11 10 9 10 9 10 12 12 13 13 9 8 7 7 6 7 7 9 8 9 11 12 8 4 9 6 13 17 15 6 10 17 9 14 10 6 4 5 5 4
21 21 20 18 17 16 15 13 12 11 10 9 10 11 10 12 7 9 10 9 7 7 8 8 10 9 9 11 10 6 7 8 12 16 15 11 11 14 23 12 7 7 8 9 5 3 8
23 22 20 17 17 17 16 15 14 13 12 11 10 10 8 10 4 10 9 7 8 9 9 9 8 10 10 10 8 8 10 13 12 17 12 20 7 11 7 2 6 11 11 13 16 17 15
25 25 21 20 19 18 18 17 16 15 14 13 12 8 10 10 9 10 9 8 9 10 11 10 12 11 12 12 11 10 17 12 17 22 18 16 14 11 15 20 23 30 24 22 20 19 23
28 26 24 22 21 19 19 19 18 17 16 15 13 12 11 11 11 10 11 10 11 10 10 13 13 13 14 13 15 13 14 20 20 23 14 15 21 22 25 27 26 22 24 21 26 29 24
30 28 26 25 24 22 21 21 20 20 19 18 15 14 14 13 13 14 15 14 12 13 14 17 16 16 18 18 18 23 22 21 22 22 22 25 20 30 35 25 13 30 24 10 18 21 29
32 30 28 27 26 25 24 24 23 22 21 20 19 18 16 16 16 17 17 16 17 18 17 17 18 20 21 20 22 23 22 19 24 28 29 30 27 19 15 17 22 18 10 23 25 20 24
32 31 30 29 27 26 26 26 25 25 24 23 21 21 20 21 19 20 21 20 21 21 21 20 22 24 22 22 25 20 21 20 24 22 24 29 27 21 18 21 5 16 34 25 20 22 25
32 33 32 30 29 27 28 28 28 27 26 25 24 24 25 26 24 22 24 23 24 23 26 27 25 22 19 24 24 18 16 16 11 19 16 20 22 13 8 10 29 25 14 22 24 31 28
33 33 32 29 30 29 29 30 29 29 27 27 30 30 28 31 34 30 29 29 27 28 29 25 20 20 21 20 20 12 9 15 8 10 13 20 18 20 18 9 8 23 28 29 25 31 14
35 34 34 33 32 32 31 32 32 31 31 31 33 31 37 36 38 39 34 31 30 29 28 31 27 22 19 21 24 22 20 17 12 15 12 18 15 22 26 16 21 22 23 22 14 26 30
37 38 41 36 35 35 37 34 34 33 34 31 29 30 36 42 43 43 38 34 29 26 25 23 22 25 20 19 14 18 20 19 23 25 23 21 14 21 15 11 15 15 25 27 34 50 49
41 42 38 41 38 38 41 37 36 37 39 41 40 35 39 35 44 42 36 33 31 28 23 24 25 24 21 14 19 22 29 29 32 35 23 26 31 22 21 27 36 40 41 43 45 43 43
Wind_Direction
83 83 79 73 61 50 38 26 17 12 8 7 10 12 15 18 14 5 5 10 8 20 67 71 55 34 42 32 20 9 4 3 8 7 12 10 12 14 14 20 32 20 280 297 314 327 255
87 86 79 65 53 42 29 19 14 15 14 11 14 16 19 15 11 6 4 1 358 14 91 71 47 65 65 39 17 2 1 9 9 4 1 9 11 18 16 7 3 315 289 292 306 310 293
92 87 71 59 46 34 23 19 18 19 23 26 27 25 20 20 18 16 7 6 28 61 90 87 82 80 56 38 10 351 358 6 3 359 356 359 8 18 12 1 337 313 280 284 292 294 290
96 87 71 56 38 26 22 21 22 26 32 36 34 29 29 25 25 20 16 30 53 76 94 100 96 71 49 19 0 345 350 354 355 356 356 353 358 7 6 354 334 318 294 287 297 292 292
91 78 65 47 35 24 19 17 21 27 31 34 30 31 33 29 24 23 25 44 65 74 88 92 77 45 17 3 352 349 348 352 351 353 351 352 354 359 359 358 345 323 294 296 298 288 280
80 65 46 30 16 7 6 6 9 17 21 25 25 24 24 27 25 23 27 47 59 71 76 66 43 17 2 344 346 354 355 349 347 350 352 351 359 354 356 12 337 320 315 304 302 292 281
55 30 18 4 357 357 355 352 352 357 360 358 7 11 13 16 20 21 22 24 43 65 59 56 38 6 346 349 5 358 352 351 352 352 354 351 25 355 356 355 338 335 332 314 316 304 295
354 351 350 344 343 348 347 344 342 345 352 350 350 356 360 9 11 12 17 15 13 36 64 44 15 21 15 22 7 359 358 358 354 0 354 8 359 358 360 344 340 336 330 322 326 314 309
318 324 328 335 332 332 340 339 335 337 344 347 351 353 357 4 6 4 7 7 353 253 350 17 13 9 15 0 360 0 359 2 11 3 7 5 347 1 357 346 344 337 335 326 319 317 313
301 302 311 317 319 323 330 332 330 331 335 335 341 347 354 358 359 1 360 356 346 278 260 352 2 5 2 1 356 358 359 1 6 7 359 348 343 349 354 355 349 350 336 323 317 320 315
288 295 301 310 312 313 323 326 325 326 330 330 333 342 349 351 352 353 353 353 352 135 145 337 352 356 353 1 353 354 352 357 359 6 4 346 343 329 348 345 351 339 336 322 314 309 309
287 293 300 306 311 309 317 322 323 324 327 323 328 335 341 345 347 347 350 351 6 117 80 327 342 342 340 347 340 347 353 357 358 2 358 346 345 334 340 342 352 344 342 328 323 328 265
289 291 296 306 309 308 311 315 320 320 321 322 325 332 340 344 346 348 351 353 56 61 333 337 331 336 334 346 342 348 353 347 16 9 355 356 339 335 338 342 341 351 359 332 297 307 308
280 282 291 300 305 305 307 308 310 312 314 320 328 335 342 346 347 348 354 12 84 348 342 331 336 337 333 344 339 343 348 350 3 7 355 348 333 335 328 337 332 348 11 22 321 326 303
274 278 285 292 296 298 297 298 300 304 309 318 329 338 342 345 346 348 7 39 32 352 342 344 341 340 330 334 337 337 338 338 347 358 11 340 301 314 312 333 332 327 349 322 270 275 275
275 276 279 284 285 287 287 289 293 299 307 317 326 332 334 340 347 359 15 34 15 357 349 351 353 328 325 333 342 338 334 322 335 340 345 328 302 302 314 318 319 309 314 326 331 308 300
269 275 276 278 278 279 279 277 279 286 294 303 311 323 331 343 351 3 17 19 1 352 345 342 338 325 327 332 337 341 329 322 318 323 329 327 298 297 315 301 300 302 294 224 284 259 290
262 268 274 276 277 275 273 271 271 274 279 288 304 322 331 344 356 3 9 6 359 348 339 332 333 334 325 331 331 329 317 316 314 323 327 326 299 286 314 293 286 288 266 247 271 277 258
256 260 263 265 270 271 269 267 269 272 275 283 297 309 317 334 334 350 354 357 351 343 335 324 320 324 321 320 328 310 317 315 315 325 319 316 294 309 316 280 302 311 295 286 280 274 266
257 260 260 264 263 264 263 265 266 269 273 282 294 300 310 323 329 339 342 343 339 334 327 322 318 314 313 309 310 298 310 306 313 312 313 302 277 267 274 290 296 293 286 281 269 270 265
255 257 255 257 261 261 263 265 267 269 271 279 287 291 299 304 318 328 327 331 328 321 318 314 309 307 305 299 305 303 304 302 311 316 309 300 281 293 295 293 297 295 297 288 268 278 257
251 252 254 255 255 254 254 257 263 268 270 276 280 284 286 294 304 310 311 315 312 308 311 308 302 303 303 300 298 294 298 302 302 304 300 298 293 301 301 310 298 305 304 295 294 288 272
251 249 250 252 253 255 253 253 254 258 263 268 274 278 283 290 295 302 305 307 306 308 311 306 298 298 300 304 298 296 293 291 291 290 286 283 285 294 292 300 310 298 316 304 302 296 295
247 249 249 250 251 253 255 255 256 258 261 265 270 274 280 285 292 299 302 304 305 303 298 297 295 294 300 298 298 298 299 290 296 281 270 269 273 276 278 301 242 306 306 306 298 310 313
245 247 246 249 249 247 249 252 256 260 262 266 270 275 282 286 290 295 294 299 300 294 296 294 296 290 292 296 308 307 305 295 290 283 267 259 258 257 257 262 289 308 308 307 300 305 317
242 246 248 248 253 255 253 254 255 258 263 267 276 277 279 287 289 293 292 297 297 296 298 295 287 282 293 292 299 285 287 286 279 272 266 257 253 242 251 258 273 297 303 306 300 310 306
241 243 245 246 247 249 250 254 257 259 260 263 265 275 276 278 286 295 288 292 291 294 291 296 292 291 282 298 291 278 277 261 265 264 265 244 246 247 253 252 280 281 302 300 292 305 305
242 244 245 241 246 248 249 249 253 257 261 265 267 270 282 284 285 295 287 289 289 296 290 284 289 290 282 267 262 284 273 273 273 264 269 263 276 270 248 236 277 306 312 301 295 304 307
244 247 247 250 248 249 255 248 249 258 264 269 271 270 271 273 283 288 291 286 289 283 280 273 261 257 275 251 282 283 279 275 277 277 278 263 278 252 275 276 280 285 301 297 302 303 308